Bangkok (Don Mueang), Thailand

3:09 PM +07 on December 11, 2017 (GMT +0700)
Bangkok International

Weather History for VTBD - February, 2012

Change the Weather History Date:

Monday, February 27, 2012

  Actual Average Record
Temperature  
Mean Temperature 90 °F -  
Max Temperature 95 °F 93 °F 98 °F (1997)
Min Temperature 84 °F 76 °F 73 °F (2001)
Cooling Degree Days 24    
Growing Degree Days 40 (Base 50)    
Moisture  
Dew Point 76 °F    
Average Humidity 67    
Maximum Humidity 79    
Minimum Humidity 49    
Precipitation  
Precipitation 0.00 in 0.03 in - ()
Sea Level Pressure  
Sea Level Pressure 29.73 in    
Wind  
Wind Speed 9 mph ()    
Max Wind Speed 16 mph    
Max Gust Speed -    
Visibility 6.2 miles    
Events      
Averages and records for this station are not official NWS values.
T = Trace of Precipitation, MM = Missing Value Source: Averaged Metar Reports

Daily Weather History Graph

Daily Weather History Graph

Search for Another Location

Airport or City:

Trip Planner

Search our weather history database for the weather conditions in past years. The results will help you decide how hot, cold, wet, or windy it might be!

Date:

Astronomy

Feb. 27, 2012 Rise Set
Actual Time 6:35 AM +07 6:25 PM +07
Civil Twilight 6:14 AM +07 6:46 PM +07
Nautical Twilight 5:49 AM +07 7:11 PM +07
Astronomical Twilight 5:24 AM +07 7:36 PM +07
Moon 9:46 AM +07 (2/27) 10:44 PM +07 (2/27)
Length of Visible Light 12h 32m
Length of Day
11h 49m
Waxing Crescent, 24% of the Moon is Illuminated
Feb 27
Waxing Crescent
Mar 1
First Quarter
Mar 8
Full
Mar 15
Last Quarter
Mar 22
New

Hourly Weather History & Observations

Time (+07) Temp. Heat Index Dew Point Humidity Pressure Visibility Wind Dir Wind Speed Gust Speed Precip Events Conditions
12:00 AM 84.2 °F 92.3 °F 75.2 °F 74% 29.74 in - South 8.1 mph - N/A   Clear
12:30 AM 84.2 °F 92.3 °F 75.2 °F 74% 29.74 in - South 8.1 mph - N/A   Clear
1:00 AM 84.2 °F 94.1 °F 77.0 °F 79% 29.74 in - South 11.5 mph - N/A   Clear
1:30 AM 84.2 °F 94.1 °F 77.0 °F 79% 29.71 in - South 6.9 mph - N/A   Clear
2:00 AM 84.2 °F 94.1 °F 77.0 °F 79% 29.71 in - South 5.8 mph - N/A   Clear
2:30 AM 84.2 °F 94.1 °F 77.0 °F 79% 29.71 in 6.2 mi South 9.2 mph - N/A   Scattered Clouds
3:00 AM 84.2 °F 94.1 °F 77.0 °F 79% 29.71 in 6.2 mi South 5.8 mph - N/A   Scattered Clouds
3:30 AM 84.2 °F 94.1 °F 77.0 °F 79% 29.71 in 6.2 mi South 6.9 mph - N/A   Scattered Clouds
4:00 AM 84.2 °F 94.1 °F 77.0 °F 79% 29.71 in 6.2 mi South 8.1 mph - N/A   Scattered Clouds
4:30 AM 84.2 °F 94.1 °F 77.0 °F 79% 29.71 in 6.2 mi South 5.8 mph - N/A   Mostly Cloudy
5:00 AM 84.2 °F 94.1 °F 77.0 °F 79% 29.71 in 6.2 mi SSW 5.8 mph - N/A   Mostly Cloudy
5:30 AM 84.2 °F 94.1 °F 77.0 °F 79% 29.71 in 6.2 mi South 5.8 mph - N/A   Mostly Cloudy
6:00 AM 84.2 °F 94.1 °F 77.0 °F 79% 29.74 in 6.2 mi South 6.9 mph - N/A   Mostly Cloudy
6:30 AM 84.2 °F 94.1 °F 77.0 °F 79% 29.74 in 6.2 mi SSE 6.9 mph - N/A   Mostly Cloudy
7:00 AM 84.2 °F 94.1 °F 77.0 °F 79% 29.77 in 6.2 mi SSE 3.5 mph - N/A   Mostly Cloudy
7:30 AM 84.2 °F 94.1 °F 77.0 °F 79% 29.77 in 6.2 mi SSE 5.8 mph - N/A   Mostly Cloudy
8:00 AM 84.2 °F 94.1 °F 77.0 °F 79% 29.77 in 6.2 mi South 8.1 mph - N/A   Mostly Cloudy
8:30 AM 86.0 °F 96.9 °F 77.0 °F 74% 29.80 in 6.2 mi South 10.4 mph - N/A   Mostly Cloudy
9:00 AM 86.0 °F 96.9 °F 77.0 °F 74% 29.80 in 6.2 mi South 9.2 mph - N/A   Mostly Cloudy
9:30 AM 87.8 °F 99.7 °F 77.0 °F 70% 29.80 in 6.2 mi South 10.4 mph - N/A   Mostly Cloudy
10:00 AM 89.6 °F 102.2 °F 77.0 °F 66% 29.80 in 6.2 mi South 12.7 mph - N/A   Mostly Cloudy
10:30 AM 89.6 °F 102.2 °F 77.0 °F 66% 29.80 in 6.2 mi SSW 12.7 mph - N/A   Mostly Cloudy
11:00 AM 91.4 °F 100.1 °F 73.4 °F 55% 29.80 in 6.2 mi South 11.5 mph - N/A   Mostly Cloudy
11:30 AM 91.4 °F 100.1 °F 73.4 °F 55% 29.80 in 6.2 mi South 10.4 mph - N/A   Mostly Cloudy
12:00 PM 93.2 °F 102.4 °F 73.4 °F 52% 29.77 in 6.2 mi South 10.4 mph - N/A   Mostly Cloudy
12:30 PM 93.2 °F 102.4 °F 73.4 °F 52% 29.77 in 6.2 mi South 12.7 mph - N/A   Mostly Cloudy
1:00 PM 95.0 °F 104.5 °F 73.4 °F 49% 29.74 in 6.2 mi South 13.8 mph - N/A   Mostly Cloudy
1:30 PM 95.0 °F 104.5 °F 73.4 °F 49% 29.74 in 6.2 mi SSE 12.7 mph - N/A   Mostly Cloudy
2:00 PM 95.0 °F 107.4 °F 75.2 °F 53% 29.71 in 6.2 mi South 10.4 mph - N/A   Mostly Cloudy
2:30 PM 95.0 °F 104.5 °F 73.4 °F 49% 29.68 in 6.2 mi South 11.5 mph - N/A   Mostly Cloudy
3:00 PM 95.0 °F 104.5 °F 73.4 °F 49% 29.68 in 6.2 mi South 12.7 mph - N/A   Scattered Clouds
3:30 PM 95.0 °F 104.5 °F 73.4 °F 49% 29.68 in 6.2 mi SSW 12.7 mph - N/A   Scattered Clouds
4:00 PM 95.0 °F 104.5 °F 73.4 °F 49% 29.68 in 6.2 mi South 13.8 mph - N/A   Mostly Cloudy
4:30 PM 95.0 °F 104.5 °F 73.4 °F 49% 29.68 in 6.2 mi South 10.4 mph - N/A   Mostly Cloudy
5:00 PM 93.2 °F 100.5 °F 71.6 °F 49% 29.65 in 6.2 mi South 16.1 mph - N/A   Mostly Cloudy
5:30 PM 91.4 °F 98.4 °F 71.6 °F 52% 29.65 in 6.2 mi South 11.5 mph - N/A   Mostly Cloudy
6:00 PM 91.4 °F 102.5 °F 75.2 °F 59% 29.68 in 6.2 mi South 13.8 mph - N/A   Mostly Cloudy
6:30 PM 89.6 °F 99.8 °F 75.2 °F 62% - 6.2 mi South 11.5 mph - N/A   Mostly Cloudy
7:00 PM 89.6 °F 104.7 °F 78.8 °F 70% 29.71 in 6.2 mi South 11.5 mph - N/A   Mostly Cloudy
7:30 PM 87.8 °F 102.5 °F 78.8 °F 75% 29.71 in 6.2 mi SSE 16.1 mph - N/A   Mostly Cloudy
8:00 PM 87.8 °F 102.5 °F 78.8 °F 75% 29.71 in 6.2 mi South 12.7 mph - N/A   Mostly Cloudy
8:30 PM 86.0 °F 95.1 °F 75.2 °F 70% 29.71 in 6.2 mi South 11.5 mph - N/A   Mostly Cloudy
9:00 PM 86.0 °F 95.1 °F 75.2 °F 70% 29.71 in 6.2 mi South 12.7 mph - N/A   Mostly Cloudy
9:30 PM 86.0 °F 95.1 °F 75.2 °F 70% 29.71 in 6.2 mi South 15.0 mph - N/A   Mostly Cloudy
10:00 PM 84.2 °F 92.3 °F 75.2 °F 74% 29.74 in 6.2 mi South 15.0 mph - N/A   Mostly Cloudy
10:30 PM 84.2 °F 90.9 °F 73.4 °F 70% 29.74 in 6.2 mi South 12.7 mph - N/A   Mostly Cloudy
11:30 PM 84.2 °F 90.9 °F 73.4 °F 70% 29.74 in 6.2 mi South 11.5 mph - N/A   Mostly Cloudy